Regional Weather Roundup
Issued by NWS

Home | Current Version | Previous Version | Text Only | Print | Product List | Glossary On
Versions: 1 2 3 4 5 6 7 8 9 10 11 12 13 14 15 16 17 18 19 20 21 22 23 24 25 26 27 28 29 30 31 32 33 34 35 36 37 38 39 40 41 42 43 44 45 46 47 48
000
ASUS43 KMPX 131510
RWRMN
WEATHER ROUNDUP FOR MINNESOTA
NATIONAL WEATHER SERVICE TWIN CITIES/CHANHASSEN MN
1000 AM CDT THU AUG 13 2020


NOTE: "FAIR" INDICATES FEW OR NO CLOUDS BELOW 12,000 FEET WITH NO
SIGNIFICANT WEATHER AND/OR OBSTRUCTIONS TO VISIBILITY. N/A MEANS
CURRENT SKY AND/OR WEATHER CONDITIONS ARE NOT AVAILABLE.

MNZ060>063-068>070-131600-
   Twin Cities Metro

CITY           SKY/WX    TMP DP  RH WIND       PRES   REMARKS
TWIN CITIES    MOSUNNY   76  69  79 S9        30.01F
ST PAUL        MOSUNNY   77  69  76 SE7       30.01F
CRYSTAL        CLOUDY    76  68  76 SE7       29.99F
BLAINE         PTSUNNY   79  72  78 SE8       30.00F
LAKEVILLE      MOSUNNY   77  64  65 S5        30.03R
EDEN PRAIRIE   CLOUDY    74  69  85 S10       30.00S
SOUTH ST PAUL  MOSUNNY   76  67  76 SE8       30.02S
LAKE ELMO      FAIR      75  70  83 S9        30.04S
$$
MNZ001>005-007-008-013>017-022>024-027-028-131600-
   Northwest Minnesota

CITY           SKY/WX    TMP DP  RH WIND       PRES   REMARKS
BEMIDJI        CLOUDY    65  64  94 SE14      29.95S
HALLOCK        CLOUDY    70  66  88 SE14      29.82F
ROSEAU         CLOUDY    66 N/A N/A SE12      29.89F
WARROAD        CLOUDY    64  63  94 SE13      29.92F
CROOKSTON      CLOUDY    72  68  88 SE17      29.83F
FOSSTON        SUNNY     70  64  83 SE9G18    29.88F
DETROIT LAKES    N/A     68  66  94 SE15      29.89F FOG
MOORHEAD       MOSUNNY   79  66  65 SE18G24   29.82F
PARK RAPIDS    FOG       67  65  93 SE13      29.94F VSB 1
MAHNOMEN       CLOUDY    69  66  90 SE14G23   29.87F
$$
MNZ006-009>011-018-025>026-131600-
   North Central Minnesota

CITY           SKY/WX    TMP DP  RH WIND       PRES   REMARKS
BAUDETTE       CLOUDY    67  62  84 SE13G20   29.96F
FLAG ISLAND      N/A     68  59  73 SE12G20   29.92F
INTL FALLS     MOSUNNY   71  60  68 SE13      30.00R
WASKISH        CLOUDY    66  63  88 SE9       29.96S
BIG FORK       CLOUDY    66  61  82 SE6       30.05S
GRAND RAPIDS   CLOUDY    63  61  93 SE12      30.03F
CRANE LAKE     MOSUNNY   70  61  73 SE6       30.05S
ORR            CLOUDY    66  59  77 SE6G16    30.01S
COOK           CLOUDY    66  61  82 SE8G16    30.03S
WALKER         CLOUDY    65  64  97 SE6       29.96S
$$
MNZ012-019>021-037-131600-
   Northeast Minnesota

CITY           SKY/WX    TMP DP  RH WIND       PRES   REMARKS
DULUTH         CLOUDY    65  59  81 SE10      30.05F
ELY            PTSUNNY   70  57  64 SE16G22   30.06S
HIBBING        CLOUDY    64  59  83 SE8       30.03F
EVELETH        CLOUDY    66  60  82 SE7       30.05F
DULUTH HARBOR  CLOUDY    66  61  82 E7        30.05F
TWO HARBORS    MOSUNNY   66  55  68 E6        30.06F
SILVER BAY       N/A     68  63  83 NE8       30.08F
GRAND MARAIS     N/A     61  54  77 NE5       30.10F
G MARAIS ARPRT CLOUDY    66  54  63 E7        30.13F
$$
MNZ029>031-032-039>041-046>048-054>057-064-131600-
   West Central Minnesota

CITY           SKY/WX    TMP DP  RH WIND       PRES   REMARKS
FERGUS FALLS   MOSUNNY   75  72  88 SE16      29.85F
WHEATON        SUNNY     79  70  73 SE15G21   29.84F
MORRIS         MOSUNNY   75  73  94 S15       29.89F
ALEXANDRIA     CLOUDY    75  71  87 S13       29.93F
ELBOW LAKE     PTSUNNY   76  72  85 SE17      29.88F
WADENA         CLOUDY    68  68 100 SE13      29.92F FOG
GLENWOOD       MOSUNNY   77  72  83 S17       29.93F
APPLETON       SUNNY     79  72  78 S6        29.88S
BENSON         MOSUNNY   79  72  78 S13G20    29.91F
ORTONVILLE     MOSUNNY   79  72  78 S13       29.86F
MADISON        SUNNY     81  73  78 S14       29.88F
WILLMAR        FAIR      79  72  78 S8        29.96F
$$
MNZ033>034-036-042>043-049>051-058-059-131600-
   Central Minnesota

CITY           SKY/WX    TMP DP  RH WIND       PRES   REMARKS
ST CLOUD       CLOUDY    71  69  93 SE9       29.98F
SAUK CENTRE    CLOUDY    75  73  92 SE10      29.94F
PAYNESVILLE    CLOUDY    75  74  96 SE9       29.96F
AITKIN         CLOUDY    64  61  88 SE9       29.99S FOG
PINE RIVER       N/A     66  64  94 SE7       30.00F
BRAINERD       FOG       69  65  86 SE8       29.98F VSB 1
STAPLES        CLOUDY    66  66 100 SE6       29.95S FOG
LONG PRAIRIE   CLOUDY    68  68 100 SE6       29.95F FOG
LITTLE FALLS   CLOUDY    68  68 100 SE9       29.97F FOG
CAMP RIPLEY    CLOUDY    69  68  99 SE9       29.97F FOG
LITCHFIELD     PTSUNNY   77  75  94 SE6       29.97F
BUFFALO        CLOUDY    71  68  90 MISG      30.01S FOG
MAPLE LAKE       N/A     73  71  96 CALM      30.00S FOG
HUTCHINSON     PTSUNNY   77  74  90 S6        29.99F
$$
MNZ037-044-045-052-053-131600-
   East Central Minnesota

CITY           SKY/WX    TMP DP  RH WIND       PRES   REMARKS
PRINCETON      CLOUDY    72  68  88 SE6       30.00F
MORA           CLOUDY    68  63  83 SE6       30.03S
CAMBRIDGE      MOSUNNY   73  63  68 SE6       30.01S
RUSH CITY      PTSUNNY   71  65  80 SE9       30.02S
MOOSE LAKE     CLOUDY    66  63  88 CALM      30.01F
HINCKLEY       CLOUDY    70  66  88 SE6       30.02F
CLOQUET        CLOUDY    63  59  88 E8        30.04F
MCGREGOR       CLOUDY    66  63  88 SE10      30.02F
$$
MNZ071>073-080-081-089-090-097-098-131600-
   Southwest Minnesota

CITY           SKY/WX    TMP DP  RH WIND       PRES   REMARKS
MONTEVIDEO     SUNNY     79  70  73 SW9G16    29.91F
GRANITE FALLS  MOSUNNY   80  74  82 S12       29.94S
CANBY          SUNNY     80  71  75 S10G17    29.90F
MARSHALL       MOSUNNY   80  73  79 S16       29.93S
REDWOOD FALLS  MOSUNNY   78  72  81 S15       29.95S
OLIVIA         PTSUNNY   77  72  83 S8G17     29.95S
PIPESTONE        N/A     77  72  83 S14       29.96S
WINDOM         MOSUNNY   77  72  83 S12G17    29.98F
WORTHINGTON    CLOUDY    76  73  91 S14       29.99F
JACKSON        PTSUNNY   77  70  78 S17       30.01S
TRACY          MOSUNNY   79  69  72 S16G22    29.95S
SLAYTON        MOSUNNY   77  67  70 S14G20    29.98F
$$
MNZ065>067-074>077-082>085-091>093-131600-
   South Central Minnesota

CITY           SKY/WX    TMP DP  RH WIND       PRES   REMARKS
MANKATO        CLOUDY    74  74 100 S8        30.02S
NEW ULM        MOSUNNY   75  72  88 S12       29.99S
ST JAMES         N/A     75  72  88 S10G18    29.99S
FAIRMONT       MOSUNNY   76  73  91 S13       30.02S
GLENCOE        CLOUDY    74  72  92 S5        30.00R
FARIBAULT      PTSUNNY   75  70  83 S9        30.04R
OWATONNA       PTSUNNY   75  70  83 SE9       30.04R
ALBERT LEA     MOSUNNY   77  72  83 S8        30.05R
$$
MNZ078>079-086>088-094>096-131600-
   Southeast Minnesota

CITY           SKY/WX    TMP DP  RH WIND       PRES   REMARKS
ROCHESTER      MOSUNNY   79  69  71 S12       30.06S
RED WING       PTSUNNY   75  64  69 SE7       30.03S
STANTON        MOSUNNY   79  71  76 S9        30.01S
DODGE CENTER   MOSUNNY   75  68  78 S9        30.06R
WINONA         CLOUDY    73  64  73 SE9       30.07S
AUSTIN         MOSUNNY   77  72  83 S8        30.06S
PRESTON        MOSUNNY   75  66  72 S10       30.08S
$$
ABBREVIATIONS USED IN REMARKS
   TC - TEMPERATURES IN CELSIUS
  WCI - WIND CHILL INDEX
   HX - HEAT INDEX
  VSB - VISIBILITY
$$



USA.gov is the U.S. government's official web portal to all federal, state and local government web resources and services.